Stations météo

Publicité
Amsterdam Airport, Pays-Bas (6240): Température de l'air & dewpoint: 12.09.2018 18:00:00 - 18.09.2018 18:00:00 (CEST)Amsterdam Airport, Pays-Bas (6240): Température de l'air 5cm: 12.09.2018 18:00:00 - 18.09.2018 18:00:00 (CEST)Amsterdam Airport, Pays-Bas (6240): Vitesse du vent & gusts: 12.09.2018 18:00:00 - 18.09.2018 18:00:00 (CEST)Amsterdam Airport, Pays-Bas (6240): Direction du vent: 12.09.2018 18:00:00 - 18.09.2018 18:00:00 (CEST)Amsterdam Airport, Pays-Bas (6240): reduced air pressure: 12.09.2018 18:00:00 - 18.09.2018 18:00:00 (CEST)Amsterdam Airport, Pays-Bas (6240): visibility: 12.09.2018 18:00:00 - 18.09.2018 18:00:00 (CEST)Amsterdam Airport, Pays-Bas (6240): Quantités de précipitations: 12.09.2018 18:00:00 - 18.09.2018 18:00:00 (CEST)
Date & Time tt [°C] td [°C] tt 5cm [°C] ff [km/h] ff [knt] fx [km/h] fx [knt] dd ppp [hPa] vv [km] rr [mm]
18.09.2018 18:00:00 20,4 14,1 20,3 39 21 54 29 WSW 1012,6 10 0,0
18.09.2018 17:00:00 22,0 15,2 22,4 41 22 61 33 WSW 1011,7 10 0,0
18.09.2018 16:00:00 22,4 15,6 23,4 35 19 58 31 WSW 1011,2 10 0,0
18.09.2018 15:00:00 23,1 14,5 24,2 41 22 58 31 SSW 1011,0 10 0,0
18.09.2018 14:00:00 22,9 15,4 24,0 35 19 54 29 SSW 1010,8 10 0,0
18.09.2018 13:00:00 22,9 15,3 23,9 39 21 54 29 SSW 1010,7 10 0,0
18.09.2018 12:00:00 22,0 14,8 23,1 35 19 47 25 SW 1010,4 10 0,0
18.09.2018 11:00:00 21,4 13,9 22,5 26 14 36 19 SSW 1009,8 10 0,0
18.09.2018 10:00:00 19,9 12,6 19,7 18 10 29 16 SSW 1009,5 10 0,0
18.09.2018 09:00:00 17,1 11,8 16,1 16 9 25 14 S 1009,3 10 0,0
18.09.2018 08:00:00 15,7 10,5 13,7 15 8 22 12 SSE 1009,0 10 0,0
18.09.2018 07:00:00 15,2 10,0 13,4 16 9 25 14 SSE 1009,1 10 0,0
18.09.2018 06:00:00 15,2 9,7 13,2 18 10 29 16 SSE 1009,3 10 0,0
18.09.2018 05:00:00 14,8 9,1 12,8 15 8 25 14 SSE 1009,9 10 0,0
18.09.2018 04:00:00 15,1 8,9 12,7 13 7 22 12 SSE 1010,5 10 0,0
18.09.2018 03:00:00 15,4 9,0 13,5 18 10 25 14 SE 1011,1 10 0,0
18.09.2018 02:00:00 15,3 9,3 13,0 16 9 25 14 SE 1011,7 10 -
18.09.2018 01:00:00 16,2 9,8 13,9 18 10 25 14 SE 1012,3 10 0,0
18.09.2018 00:00:00 16,4 10,3 12,5 13 7 18 10 ESE 1012,9 10 0,0
17.09.2018 23:00:00 15,4 10,6 11,8 13 7 18 10 SE 1013,5 10 0,0
17.09.2018 22:00:00 15,8 10,9 8,5 5 3 14 8 ESE 1013,9 10 0,0
17.09.2018 21:00:00 16,5 10,8 12,5 11 6 14 8 SE 1014,3 10 0,0
17.09.2018 20:00:00 18,4 11,8 14,5 11 6 14 8 SE 1014,7 10 0,0
17.09.2018 19:00:00 20,8 12,7 19,4 11 6 18 10 SSE 1015,1 10 0,0
17.09.2018 18:00:00 22,5 11,9 22,6 16 9 25 14 S 1015,5 10 0,0
17.09.2018 17:00:00 23,1 10,2 24,2 18 10 29 16 S 1016,1 10 0,0
17.09.2018 16:00:00 23,0 10,6 24,3 21 11 29 16 S 1016,7 10 0,0
17.09.2018 15:00:00 22,3 12,6 24,4 16 9 29 16 SSW 1017,3 10 0,0
17.09.2018 14:00:00 21,6 14,5 23,8 16 9 29 16 SSW 1017,9 10 0,0
17.09.2018 13:00:00 20,4 15,4 23,1 16 9 29 16 S 1018,4 10 0,0
17.09.2018 12:00:00 19,2 16,1 21,3 16 9 25 14 S 1018,6 10 0,0
17.09.2018 11:00:00 17,9 15,1 18,3 15 8 22 12 S 1018,7 10 0,0
17.09.2018 10:00:00 16,0 13,8 15,4 13 7 18 10 S 1018,8 10 0,0
17.09.2018 09:00:00 14,7 12,6 13,8 11 6 14 8 S 1018,7 10 0,0
17.09.2018 08:00:00 13,2 11,3 10,8 11 6 14 8 S 1018,3 10 0,0
17.09.2018 07:00:00 11,4 10,1 9,2 11 6 14 8 S 1018,1 10 0,0
17.09.2018 06:00:00 11,8 10,4 9,6 11 6 14 8 SSE 1018,1 10 0,0
17.09.2018 05:00:00 12,0 10,7 9,3 13 7 14 8 S 1018,0 10 0,0
17.09.2018 04:00:00 11,7 10,2 8,7 13 7 14 8 S 1018,2 10 0,0
17.09.2018 03:00:00 11,9 10,3 8,5 11 6 14 8 S 1017,8 10 0,0
17.09.2018 02:00:00 12,4 10,5 8,3 13 7 18 10 S 1018,3 10 0,0
17.09.2018 01:00:00 12,6 10,3 7,7 13 7 14 8 S 1018,7 10 0,0
17.09.2018 00:00:00 13,4 10,7 8,4 9 5 14 8 S 1018,9 10 0,0
16.09.2018 23:00:00 13,7 10,6 9,3 11 6 14 8 SSW 1019,2 10 0,0
16.09.2018 22:00:00 14,3 10,5 9,1 11 6 14 8 S 1019,2 10 0,0
16.09.2018 21:00:00 15,2 11,8 10,9 11 6 18 10 S 1018,9 10 0,0
16.09.2018 20:00:00 17,4 12,0 14,8 13 7 25 14 WSW 1019,0 10 0,0
16.09.2018 19:00:00 19,5 11,9 17,7 16 9 25 14 SW 1019,0 10 0,0
16.09.2018 18:00:00 20,8 11,8 20,2 16 9 29 16 SSW 1018,6 10 0,0
16.09.2018 17:00:00 20,0 11,5 19,4 22 12 36 19 SSW 1019,0 10 0,0
16.09.2018 16:00:00 21,6 11,6 22,1 24 13 36 19 SSW 1019,4 10 0,0
16.09.2018 15:00:00 20,7 11,6 20,4 26 14 40 21 SSW 1019,8 10 0,0
16.09.2018 14:00:00 20,0 11,5 21,6 26 14 36 19 SSW 1020,3 10 0,0
16.09.2018 13:00:00 19,1 11,8 19,9 24 13 36 19 SSW 1021,0 10 0,0
16.09.2018 12:00:00 18,1 12,3 18,7 22 12 32 18 SSW 1021,5 10 0,0
16.09.2018 11:00:00 17,2 11,8 17,5 16 9 25 14 S 1021,5 10 0,0
16.09.2018 10:00:00 15,4 11,9 15,1 15 8 22 12 S 1021,5 10 0,0
16.09.2018 09:00:00 13,0 10,9 12,2 11 6 18 10 S 1021,6 10 0,0
16.09.2018 08:00:00 12,3 10,2 11,0 13 7 22 12 S 1021,6 10 0,0
16.09.2018 07:00:00 12,1 10,1 10,8 9 5 14 8 SSE 1021,4 10 0,0
16.09.2018 06:00:00 11,8 10,5 10,3 9 5 11 6 SSE 1021,7 10 0,0
16.09.2018 05:00:00 10,6 9,9 9,0 5 3 11 6 S 1022,1 10 0,0
16.09.2018 04:00:00 12,1 10,8 10,7 9 5 14 8 SSE 1022,5 10 0,0
16.09.2018 03:00:00 11,9 10,6 10,6 8 4 14 8 SSE 1023,2 10 0,0
16.09.2018 02:00:00 12,4 10,9 11,1 9 5 11 6 SSE 1023,7 10 0,0
16.09.2018 01:00:00 11,7 10,2 8,6 9 5 11 6 SSE 1024,3 10 0,0
16.09.2018 00:00:00 12,3 10,6 9,4 9 5 11 6 SSE 1024,5 10 0,0
15.09.2018 23:00:00 11,2 9,4 7,6 8 4 11 6 SSE 1024,5 10 0,0
15.09.2018 22:00:00 12,5 10,3 8,5 9 5 14 8 S 1024,7 10 0,0
15.09.2018 21:00:00 13,8 10,3 9,0 9 5 11 6 S 1024,3 10 0,0
15.09.2018 20:00:00 14,7 10,2 11,9 8 4 18 10 WSW 1024,1 10 0,0
15.09.2018 19:00:00 15,7 10,9 14,7 15 8 25 14 W 1023,9 10 0,0
15.09.2018 18:00:00 17,3 10,8 17,5 21 11 29 16 W 1024,0 10 0,0
15.09.2018 17:00:00 17,3 10,3 18,8 22 12 32 18 W 1024,2 10 0,0
15.09.2018 16:00:00 18,5 11,5 19,4 24 13 32 18 W 1024,1 10 0,0
15.09.2018 15:00:00 19,3 11,2 20,9 24 13 36 19 W 1024,0 10 0,0
15.09.2018 14:00:00 18,8 10,5 21,1 26 14 36 19 W 1023,7 10 0,0
15.09.2018 13:00:00 18,7 11,6 20,0 22 12 32 18 W 1023,6 10 0,0
15.09.2018 12:00:00 17,6 11,5 18,5 22 12 36 19 W 1023,6 10 0,0
15.09.2018 11:00:00 16,8 11,1 17,1 24 13 32 18 W 1023,1 10 0,0
15.09.2018 10:00:00 16,3 11,2 17,6 13 7 29 16 W 1022,4 10 0,0
15.09.2018 09:00:00 15,5 12,0 14,3 13 7 18 10 W 1021,8 10 0,0
15.09.2018 08:00:00 14,7 12,0 12,8 13 7 22 12 W 1021,0 10 0,0
15.09.2018 07:00:00 14,8 12,4 13,4 15 8 25 14 W 1020,3 10 0,0
15.09.2018 06:00:00 16,0 12,3 14,8 13 7 25 14 W 1019,8 10 0,0
15.09.2018 05:00:00 16,2 12,4 15,3 18 10 29 16 W 1019,6 10 0,0
15.09.2018 04:00:00 16,5 12,1 15,2 16 9 25 14 WSW 1019,6 10 0,0
15.09.2018 03:00:00 16,5 11,9 15,2 18 10 29 16 WSW 1019,6 10 0,0
15.09.2018 02:00:00 16,5 11,8 15,0 16 9 25 14 WSW 1019,6 10 0,0
15.09.2018 01:00:00 14,6 12,0 12,9 11 6 14 8 SSW 1019,4 10 0,0
15.09.2018 00:00:00 13,9 11,8 12,3 11 6 14 8 S 1019,3 10 0,0
14.09.2018 23:00:00 12,5 10,2 10,9 13 7 22 12 SSW 1019,4 10 0,0
14.09.2018 22:00:00 15,2 10,4 14,1 15 8 25 14 SSW 1019,4 10 0,0
14.09.2018 21:00:00 15,6 9,2 14,3 21 11 29 16 SW 1019,1 10 0,0
14.09.2018 20:00:00 16,1 8,8 14,9 22 12 32 18 SW 1019,2 10 0,0
14.09.2018 19:00:00 16,1 9,1 15,2 22 12 32 18 WSW 1019,3 10 0,0
14.09.2018 18:00:00 16,4 8,7 15,8 31 17 47 25 WSW 1019,3 10 0,0
14.09.2018 17:00:00 17,3 8,2 17,1 34 18 43 23 WSW 1019,4 10 0,0
14.09.2018 16:00:00 17,3 9,5 17,3 26 14 40 21 WSW 1019,4 10 0,0
14.09.2018 15:00:00 18,2 8,5 19,2 31 17 43 23 WSW 1019,6 10 0,0
14.09.2018 14:00:00 18,2 10,0 17,8 28 15 40 21 WSW 1019,7 10 0,0
14.09.2018 13:00:00 18,6 10,4 19,6 22 12 40 21 SW 1020,0 10 0,0
14.09.2018 12:00:00 18,4 11,3 20,3 24 13 36 19 SSW 1020,2 10 0,0
14.09.2018 11:00:00 17,1 11,6 17,8 24 13 32 18 SSW 1020,4 10 0,0
14.09.2018 10:00:00 15,3 10,6 15,6 16 9 25 14 S 1020,4 10 0,0
14.09.2018 09:00:00 12,8 10,0 11,8 13 7 22 12 S 1020,3 10 0,0
14.09.2018 08:00:00 11,0 9,0 8,2 13 7 18 10 S 1020,2 10 0,0
14.09.2018 07:00:00 9,3 7,9 7,1 13 7 18 10 S 1020,5 10 0,0
14.09.2018 06:00:00 10,0 8,5 5,5 11 6 14 8 S 1020,7 10 0,0
14.09.2018 05:00:00 8,4 7,2 4,6 9 5 11 6 S 1020,8 10 0,0
14.09.2018 04:00:00 8,9 8,1 4,6 11 6 11 6 SSE 1021,0 10 0,0
14.09.2018 03:00:00 8,5 7,9 3,3 4 2 4 2 SE 1021,4 10 0,0
14.09.2018 02:00:00 8,6 8,1 3,6 5 3 7 4 SSE 1021,7 10 0,0
14.09.2018 01:00:00 9,5 8,6 3,7 4 2 7 4 SE 1021,8 10 0,0
14.09.2018 00:00:00 10,3 9,0 4,3 2 1 4 2 SE 1022,0 10 0,0
13.09.2018 23:00:00 10,6 8,7 4,9 2 1 4 2 ESE 1021,9 10 0,0
13.09.2018 22:00:00 11,5 8,9 5,6 4 2 4 2 E 1021,9 10 0,0
13.09.2018 21:00:00 12,9 8,5 7,0 4 2 14 8 NNW 1021,6 10 0,0
13.09.2018 20:00:00 13,4 9,0 11,3 11 6 29 16 NW 1021,4 10 0,0
13.09.2018 19:00:00 15,8 9,3 15,4 13 7 22 12 NW 1021,3 10 0,0
13.09.2018 18:00:00 17,2 9,7 18,2 15 8 25 14 WNW 1021,3 10 0,0
13.09.2018 17:00:00 17,7 9,0 19,8 16 9 25 14 WNW 1021,4 10 0,0
13.09.2018 16:00:00 17,8 7,4 18,7 13 7 25 14 WNW 1021,6 10 0,0
13.09.2018 15:00:00 18,4 8,9 20,9 13 7 18 10 W 1021,9 10 0,0
13.09.2018 14:00:00 17,3 8,3 19,2 9 5 22 12 WNW 1022,3 10 0,0
13.09.2018 13:00:00 17,7 9,0 21,9 9 5 18 10 WNW 1022,4 10 0,0
13.09.2018 12:00:00 17,5 9,8 20,4 4 2 14 8 - 1022,7 10 0,0
13.09.2018 11:00:00 16,2 9,9 19,3 8 4 14 8 N 1022,8 10 0,0
13.09.2018 10:00:00 15,6 10,8 16,8 4 2 14 8 - 1022,6 10 0,0
13.09.2018 09:00:00 12,5 11,4 12,8 4 2 4 2 NW 1022,5 10 0,0
13.09.2018 08:00:00 9,1 9,0 4,1 4 2 7 4 - 1022,3 10 0,0
13.09.2018 07:00:00 8,8 8,5 3,3 2 1 4 2 ENE 1022,1 10 0,0
13.09.2018 06:00:00 8,5 8,2 3,7 2 1 4 2 - 1022,3 10 0,0
13.09.2018 05:00:00 8,7 8,5 3,8 2 1 4 2 WNW 1022,4 10 0,0
13.09.2018 04:00:00 9,0 8,7 4,3 2 1 4 2 NW 1022,5 9 0,0
13.09.2018 03:00:00 9,9 9,6 5,5 2 1 4 2 NNW 1022,5 10 0,0
13.09.2018 02:00:00 10,8 10,4 7,3 2 1 4 2 NW 1022,8 10 0,0
13.09.2018 01:00:00 11,7 10,7 8,4 0 0 4 2 N 1023,3 10 0,0
13.09.2018 00:00:00 12,5 10,7 9,7 4 2 4 2 NNE 1023,4 10 0,0
12.09.2018 23:00:00 12,9 10,1 10,7 2 1 7 4 N 1023,3 10 0,0
12.09.2018 22:00:00 13,4 10,1 11,1 5 3 7 4 NNE 1023,4 10 0,0
12.09.2018 21:00:00 13,7 10,1 12,5 5 3 14 8 NNE 1023,4 10 0,0
12.09.2018 20:00:00 14,4 9,7 13,4 8 4 22 12 N 1022,8 10 0,0
12.09.2018 19:00:00 14,8 9,8 14,1 11 6 22 12 N 1023,1 10 0,0
12.09.2018 18:00:00 15,1 10,4 14,7 11 6 25 14 N 1022,9 10 0,0

tt = Température de l'air
td = dewpoint
tt 5cm = Température de l'air 5cm
ff = Vitesse du vent
fx = gusts
dd = Direction du vent
ppp = reduced air pressure
vv = visibility
rr = Quantités de précipitations

stations d'obs. à proximité